Probability
0 0 0 0 0 0 0 0 0 0 0 0 0 0 0 0 0 0 0 0 0 0 0 0 0 0 0 0 0 0 0 0 0 0 0 0 0 0 0 0 0 0 0
0 0 0 0 0 0 0 0 0 0 0 0 0 0 0 0 0 0 0 0 0 0 0 0 0 0 0 0 0 0 0 0 0 0 0 0 0 0 0 0 0 0 0
0 0 0 0 0 0 0 0 0 0 0 0 0 0 0 0 0 0 0 0 0 0 0 0 0 0 0 0 0 0 0 0 0 0 0 0 0 0 0 0 0 0 0
0 0 0 0 0 0 0 0 0 0 0 0 0 0 0 0 0 0 0 0 0 0 0 0 0 0 0 0 0 0 0 0 0 0 0 0 0 0 0 0 0 0 0
0 0 0 0 0 0 0 0 0 0 0 0 0 0 0 0 0 0 0 0 0 0 0 0 0 0 0 0 0 0 0 0 0 0 0 0 0 0 0 0 0 0 0
0 0 0 0 0 0 0 0 0 0 0 0 0 0 0 0 0 0 0 0 0 0 0 0 0 0 0 0 0 0 0 0 0 0 0 0 0 0 0 0 0 0 0
0 0 0 0 0 0 0 0 0 0 0 0 0 0 0 0 0 0 0 0 0 0 0 0 0 0 0 0 0 0 0 0 0 0 0 0 0 0 0 0 0 0 0
0 0 0 0 0 0 0 0 0 0 0 0 0 0 0 0 0 0 0 0 0 0 0 0 0 0 0 0 0 0 0 0 0 0 0 0 0 0 0 0 0 0 0
0 0 0 0 0 0 0 0 0 0 0 0 0 0 0 0 0 0 0 0 0 0 0 0 0 0 0 0 0 0 0 0 0 0 0 0 0 0 0 0 0 0 0
0 0 0 0 0 0 0 0 0 0 0 0 0 0 0 0 0 0 0 0 0 0 0 0 0 0 0 0 0 0 0 0 0 0 0 0 0 0 0 0 0 0 0
0 0 0 0 0 0 0 0 0 0 0 0 0 0 0 0 0 0 0 0 0 0 0 0 0 0 0 0 0 0 0 0 0 0 0 0 0 0 0 0 0 0 0
0 0 0 0 0 0 0 0 0 0 0 0 0 0 0 0 0 0 0 0 0 0 0 0 0 0 0 0 0 0 0 0 0 0 0 0 0 0 0 0 0 0 0
0 0 0 0 0 0 0 0 0 0 0 0 0 0 0 0 0 0 0 0 0 0 0 0 0 0 0 0 0 0 0 0 0 0 0 0 0 0 0 0 0 0 0
0 0 0 0 0 0 0 0 0 0 0 0 0 0 0 0 0 0 0 0 0 0 0 0 0 0 0 0 0 0 0 0 0 0 0 0 0 0 0 0 0 0 0
0 0 0 0 0 0 0 0 0 0 0 0 0 0 0 0 0 0 0 0 0 0 0 0 0 0 0 0 0 0 0 0 0 0 0 0 0 0 0 0 0 0 0
0 0 0 0 0 0 0 0 0 0 0 0 0 0 0 0 0 0 0 0 0 0 0 0 0 0 0 0 0 0 0 0 0 0 0 0 0 0 0 0 0 0 0
0 0 0 0 0 0 0 0 0 0 0 0 0 0 0 0 0 0 0 0 0 0 0 0 0 0 0 0 0 0 0 0 0 0 0 0 0 0 0 0 0 0 0
0 0 0 0 0 0 0 0 0 0 0 0 0 0 0 0 0 0 0 0 0 0 0 0 0 0 0 0 0 0 0 0 0 0 0 0 0 0 0 0 0 0 0
0 0 0 0 0 0 0 0 0 0 0 0 0 0 0 0 0 0 0 0 0 0 0 0 0 0 0 0 0 0 0 0 0 0 0 0 0 0 0 0 0 0 0
0 0 0 0 0 0 0 0 0 0 0 0 0 0 0 0 0 0 0 0 0 0 0 0 0 0 0 0 0 0 0 0 0 0 0 0 0 0 0 0 0 0 0
0 0 0 0 0 0 0 0 0 0 0 0 0 0 0 0 0 0 0 0 0 0 0 0 0 0 0 0 0 0 0 0 0 0 0 0 0 0 0 0 0 0 0
0 0 0 0 0 0 0 0 0 0 0 0 0 0 0 0 0 0 0 0 0 0 0 0 0 0 0 0 0 0 0 0 0 0 0 0 0 0 0 0 0 0 0
0 0 0 0 0 0 0 0 0 0 0 0 0 0 0 0 0 0 0 0 0 0 0 0 0 0 0 0 0 0 0 0 0 0 0 0 0 0 0 0 0 0 0
0 0 0 0 0 0 0 0 0 0 0 0 0 0 0 0 0 0 0 0 0 0 0 0 0 0 0 0 0 0 0 0 0 0 0 0 0 0 0 0 0 0 0
0 0 0 0 0 0 0 0 0 0 0 0 0 0 0 0 0 0 0 0 0 0 0 0 0 0 0 0 0 0 0 0 0 0 0 0 0 0 0 0 0 0 0
0 0 0 0 0 0 0 0 0 0 0 0 0 0 0 0 0 0 0 0 0 0 0 0 0 0 0 0 0 0 0 0 0 0 0 0 0 0 0 0 0 0 0
Wind_Speed
9 9 10 9 9 9 9 10 10 9 11 12 13 13 14 14 14 13 14 16 17 15 11 11 12 12 11 10 10 11 12 12 14 10 8 8 7 7 4 2 2 3 5
8 9 10 10 10 9 10 11 12 12 10 12 13 14 15 15 14 15 16 16 17 13 11 12 13 11 14 12 10 11 11 10 9 9 7 6 7 5 4 4 3 3 3
8 9 10 10 10 10 11 12 13 13 10 11 11 13 15 15 15 15 14 16 16 11 10 12 12 13 13 11 12 10 9 7 5 5 6 5 4 4 4 3 3 3 3
9 9 9 10 10 11 13 14 14 13 11 10 10 13 15 15 16 15 14 15 11 8 9 10 12 13 13 13 10 8 7 6 4 5 5 4 4 4 3 3 3 3 2
8 8 8 9 9 10 12 13 13 13 14 11 11 13 15 14 13 18 16 9 5 6 7 10 13 17 20 17 13 13 10 4 3 4 4 3 3 2 3 3 4 3 1
8 8 8 8 9 11 12 12 13 12 11 10 11 13 15 15 25 28 12 6 6 7 7 10 13 15 20 23 25 25 23 14 8 5 3 3 3 3 3 3 4 5 3
8 8 8 8 9 11 13 12 11 10 10 10 11 12 13 17 29 24 19 11 9 8 9 10 11 14 17 14 19 23 22 26 23 12 9 7 7 6 7 6 5 5 4
8 8 8 9 9 10 10 10 9 8 8 8 10 12 13 17 28 25 22 12 9 9 11 12 12 13 16 16 14 15 15 17 19 13 10 10 11 10 6 6 3 6 5
9 9 9 9 9 9 9 9 9 8 7 7 8 10 12 15 26 26 22 10 9 10 11 14 15 14 24 25 16 14 14 15 19 24 23 21 23 25 18 6 2 10 8
10 10 10 10 9 10 10 10 8 8 8 8 9 9 11 11 23 25 22 10 10 9 9 12 19 22 26 25 15 14 14 14 15 16 17 20 17 20 26 15 8 5 9
10 11 10 9 10 10 8 8 9 8 9 8 9 9 9 12 19 24 24 9 9 9 8 8 11 24 26 26 21 15 18 15 12 13 13 13 14 13 15 15 14 7 4
10 11 10 10 10 10 8 8 8 8 7 7 7 7 6 8 16 19 24 20 15 9 8 7 11 23 24 25 19 22 25 18 10 11 11 13 13 13 12 13 15 14 12
11 10 9 11 9 7 8 8 8 7 5 6 7 7 7 6 10 20 22 22 20 10 8 17 19 22 20 16 23 25 19 12 11 11 12 11 11 12 12 11 13 13 16
11 9 9 10 9 7 8 8 7 8 6 6 6 7 6 7 6 5 6 8 13 10 9 14 18 20 17 18 17 15 12 12 12 11 10 10 9 10 12 12 12 12 12
10 8 9 10 8 7 8 8 10 6 11 8 5 4 5 6 10 16 9 6 5 8 8 7 8 9 10 10 10 10 10 11 11 10 10 10 10 11 11 11 11 11 12
9 8 7 8 7 7 6 8 16 17 20 19 15 11 8 13 15 16 15 16 17 18 10 5 7 8 9 10 9 9 9 10 10 10 9 10 10 10 10 10 10 10 11
7 7 6 8 7 7 8 8 8 11 17 18 17 16 13 14 15 14 14 14 16 15 6 4 4 5 5 6 6 6 6 7 6 7 7 8 8 8 9 9 9 9 9
7 9 9 6 6 5 6 6 6 7 7 6 11 17 16 13 12 12 13 11 7 7 3 3 3 4 3 4 5 4 4 4 4 4 5 5 6 6 7 7 7 8 8
7 6 5 5 5 4 5 5 5 6 6 5 5 8 14 13 12 12 10 4 4 4 4 4 3 3 3 3 3 4 4 3 3 3 4 4 4 4 5 6 6 10 8
5 13 11 6 5 5 4 4 5 5 5 5 5 5 5 5 4 5 4 3 3 3 4 4 4 4 3 3 3 3 3 3 4 3 3 3 3 3 3 4 4 4 4
5 7 13 7 5 6 4 4 4 5 5 6 5 8 12 3 4 5 4 4 3 3 4 4 3 4 3 2 2 3 3 3 3 3 3 2 2 2 2 2 3 3 3
4 4 5 5 5 6 6 4 4 5 6 7 6 8 14 5 4 5 5 5 4 4 4 4 3 3 3 3 2 2 2 3 2 2 2 2 2 2 1 1 2 2 2
4 5 5 5 5 10 9 6 5 5 6 7 7 7 7 6 6 6 6 5 5 5 4 4 4 4 4 4 4 4 4 4 3 3 2 2 2 2 1 1 1 1 1
4 5 5 6 7 7 7 7 7 8 8 7 8 8 7 7 7 9 8 7 6 6 6 5 6 7 8 6 4 4 4 5 5 4 5 4 4 3 3 3 3 3 3
4 5 5 6 7 8 9 9 10 10 10 9 9 9 9 9 9 9 9 8 8 8 9 8 7 8 9 10 8 6 10 14 12 6 5 5 5 5 4 4 3 3 3
4 4 5 6 7 8 9 9 10 11 10 10 10 9 9 9 9 10 9 9 9 9 10 8 10 11 12 10 11 14 18 17 16 14 6 5 6 5 5 4 5 4 4
Wind_Direction
331 327 322 320 322 325 324 323 321 319 322 325 328 331 328 322 319 315 316 315 314 307 309 312 306 301 294 287 275 260 247 243 252 265 273 282 294 307 307 292 268 231 220
328 326 323 324 327 327 326 326 323 320 322 329 330 329 326 322 316 313 314 318 315 315 319 316 313 309 300 291 282 274 261 245 246 257 264 264 259 262 251 236 243 230 212
331 326 325 326 327 328 327 327 323 320 324 328 328 328 324 317 312 307 306 310 310 309 315 318 318 314 309 302 289 276 271 264 257 266 269 258 252 244 233 225 227 220 203
330 323 323 323 326 327 327 324 321 323 325 324 327 324 318 313 305 299 299 303 306 314 325 329 325 324 330 328 322 314 285 265 256 262 266 260 254 245 214 202 209 203 184
317 315 314 317 320 322 321 319 323 327 326 322 322 318 314 312 307 307 301 307 333 334 340 348 345 354 2 1 2 357 348 325 285 262 262 263 257 243 221 193 190 168 130
311 310 312 318 321 321 321 326 329 326 322 324 320 315 315 319 320 329 5 34 16 4 10 9 0 1 12 9 13 17 18 19 13 2 352 347 345 321 290 223 180 162 176
313 314 318 317 319 322 328 329 324 322 322 322 319 317 318 320 333 353 33 30 18 22 22 19 13 7 22 12 10 16 17 24 32 31 23 11 352 338 322 279 213 166 149
321 326 322 319 318 322 324 320 318 318 317 314 316 322 325 331 344 8 28 22 22 23 21 21 19 9 23 24 13 16 17 17 20 24 23 18 7 356 329 289 262 125 98
332 332 330 325 323 325 323 320 321 320 317 314 318 325 331 336 349 16 31 12 24 23 17 15 19 17 24 28 17 17 20 15 13 20 24 26 24 21 21 4 204 158 143
337 335 330 326 325 322 321 322 319 321 324 325 327 329 333 336 352 16 37 25 24 19 13 8 14 23 23 30 23 16 24 17 9 9 15 16 19 21 26 22 344 186 146
334 329 326 326 325 322 321 320 322 325 329 331 336 334 331 351 356 8 26 36 25 14 9 2 8 22 24 28 29 25 27 26 16 13 13 14 15 19 24 23 13 5 96
329 326 328 330 330 340 336 334 333 332 335 340 344 346 341 356 1 6 17 22 29 15 1 355 9 23 24 25 28 27 28 26 21 21 19 18 14 12 14 23 25 27 38
329 329 334 331 330 340 343 340 338 334 338 356 357 358 350 4 359 14 20 18 19 18 5 14 19 23 23 22 25 27 24 22 21 24 22 18 13 10 13 20 24 28 41
330 335 341 335 335 342 351 348 342 340 355 12 2 358 348 351 350 4 19 14 11 13 11 13 19 22 26 24 25 24 20 24 25 21 18 14 13 19 24 24 26 23 39
331 341 345 340 335 346 355 352 353 355 14 16 1 349 346 350 15 28 29 11 9 32 27 15 14 14 17 19 20 22 21 20 24 21 17 17 20 25 31 32 33 33 40
339 350 344 338 342 352 354 353 3 11 15 18 22 23 1 10 24 25 22 21 27 32 31 18 20 17 15 14 16 17 20 22 20 23 22 19 21 24 31 37 42 41 42
339 343 341 341 341 352 358 355 353 360 12 14 16 19 17 11 17 16 15 17 21 26 25 7 7 7 8 8 7 7 13 17 14 18 22 19 22 27 33 38 43 49 51
338 342 348 332 336 344 350 350 349 350 350 352 358 2 5 6 7 8 13 16 5 11 3 2 359 356 358 0 359 358 355 5 9 15 19 19 22 29 37 40 42 48 56
339 333 335 330 332 338 339 342 341 342 341 335 331 344 359 1 2 4 11 6 340 344 346 350 350 351 351 351 351 350 349 354 7 17 25 23 22 31 37 36 40 56 58
334 345 354 343 330 330 331 333 333 333 331 328 326 320 330 350 342 342 344 328 330 329 332 334 334 335 339 345 340 339 342 348 1 11 12 22 22 30 40 46 45 50 50
321 328 345 342 328 325 324 323 319 320 321 321 316 322 344 343 320 315 315 313 311 308 306 305 307 312 317 324 337 340 339 336 345 351 352 1 14 21 24 34 38 50 59
315 316 319 320 323 327 332 319 311 309 311 314 312 317 331 328 296 294 295 296 291 283 279 278 278 277 277 272 267 278 293 300 306 317 333 339 338 337 346 360 12 27 52
325 324 324 325 327 335 338 321 314 308 306 306 307 310 311 305 298 293 286 281 272 270 269 268 267 267 263 253 242 235 240 248 247 239 249 280 296 293 277 259 252 256 260
331 328 327 329 336 338 334 332 329 322 314 308 305 301 298 294 291 290 287 277 269 263 258 256 257 257 261 258 244 236 230 237 234 226 221 221 233 248 250 239 232 233 230
332 334 333 333 339 341 338 338 337 332 330 329 323 314 305 297 290 285 280 277 273 269 263 256 254 254 255 252 246 241 257 266 266 248 209 206 214 219 224 230 224 224 224
335 345 341 338 339 341 341 339 337 333 336 340 338 332 324 316 306 296 288 280 273 268 265 260 252 248 246 245 245 251 259 259 259 259 230 198 203 210 208 212 213 214 217